KD4PMP Weather Reports


Display with metric or nautical units.
time (UTC)temp
F
wind
direction
speed
MPH
gust
MPH
rain 1hr
in
rain 24hr
in
rain mn
in
humidity
%
barometer
mb
20260906123125 76 204 0.0 2.0 0.00 0.00 0.00 88 1011.5
20260906122118 75 204 1.0 2.0 0.00 0.00 0.00 89 1011.5
20260906121112 75 198 1.0 2.0 0.00 0.00 0.00 89 1011.4
20260906120105 75 194 0.0 0.0 0.00 0.00 0.00 89 1011.3
20260906115059 75 194 0.0 0.0 0.00 0.00 0.00 88 1011.2
20260906114053 75 194 0.0 1.0 0.00 0.00 0.00 88 1011.0
20260906113046 75 194 0.0 0.0 0.00 0.00 0.00 88 1010.8
20260906112040 75 194 0.0 0.0 0.00 0.00 0.00 87 1010.7
20260906111034 75 194 0.0 0.0 0.00 0.00 0.00 87 1010.6
20260906105958 76 194 0.0 1.0 0.00 0.00 0.00 87 1010.6
20260906104952 76 194 0.0 2.0 0.00 0.00 0.00 87 1010.6
20260906103945 75 132 0.0 1.0 0.00 0.00 0.00 86 1010.5
20260906102939 75 132 0.0 1.0 0.00 0.00 0.00 87 1010.4
20260906101932 75 132 0.0 1.0 0.00 0.00 0.00 87 1010.4
20260906100926 75 132 0.0 1.0 0.00 0.00 0.00 87 1010.5
20260906095919 75 132 0.0 1.0 0.00 0.00 0.00 87 1010.4
20260906094913 76 132 0.0 2.0 0.00 0.00 0.00 87 1010.6
20260906093907 76 134 1.0 2.0 0.00 0.00 0.00 87 1010.6
20260906092900 76 134 1.0 2.0 0.00 0.00 0.00 86 1010.3
20260906091854 76 134 0.0 1.0 0.00 0.00 0.00 86 1010.3
20260906090848 76 134 0.0 2.0 0.00 0.00 0.00 86 1010.3
20260906085842 76 134 0.0 3.0 0.00 0.00 0.00 86 1010.2
20260906084835 76 134 1.0 2.0 0.00 0.00 0.00 85 1010.2
20260906083829 76 133 0.0 4.0 0.00 0.00 0.00 86 1010.2
20260906082822 76 144 1.0 7.0 0.00 0.00 0.00 85 1010.2
20260906081816 77 132 1.0 3.0 0.00 0.00 0.00 85 1010.2
20260906080810 77 132 0.0 3.0 0.00 0.00 0.00 84 1010.1
20260906075803 77 182 0.0 3.0 0.00 0.00 0.00 84 1010.3
20260906074757 77 196 1.0 2.0 0.00 0.00 0.00 83 1010.5
20260906073751 78 196 1.0 3.0 0.00 0.00 0.00 82 1010.6
20260906072744 78 146 0.0 3.0 0.00 0.00 0.00 82 1010.6
20260906071738 78 168 1.0 3.0 0.00 0.00 0.00 81 1010.7
20260906070732 79 125 1.0 2.0 0.00 0.00 0.00 82 1010.9
20260906065726 79 125 0.0 2.0 0.00 0.00 0.00 81 1010.9
20260906064719 79 125 2.0 2.0 0.00 0.00 0.00 81 1010.9
20260906063713 79 125 1.0 2.0 0.00 0.00 0.00 80 1010.7
20260906062707 80 125 0.0 4.0 0.00 0.00 0.00 79 1010.4
20260906061700 80 186 1.0 4.0 0.00 0.00 0.00 79 1010.6
20260906060654 80 142 1.0 7.0 0.00 0.00 0.00 78 1010.9
20260906055647 81 119 2.0 8.0 0.00 0.00 0.00 76 1010.8
20260906054641 82 109 3.0 8.0 0.00 0.00 0.00 75 1011.0
20260906053634 82 173 2.0 8.0 0.00 0.00 0.00 74 1011.1
20260906052628 83 146 2.0 7.0 0.00 0.00 0.00 73 1011.0
20260906051622 83 115 3.0 8.0 0.00 0.00 0.00 73 1010.9
20260906050615 83 121 0.0 6.0 0.00 0.00 0.00 75 1010.9
20260906045609 82 96 1.0 9.0 0.00 0.00 0.00 75 1010.9
20260906044602 82 101 2.0 7.0 0.00 0.00 0.00 77 1010.9
20260906043555 81 101 1.0 4.0 0.00 0.00 0.00 78 1010.7
20260906042548 82 124 0.0 0.0 0.00 0.00 0.00 79 1010.4
20260906041542 82 124 0.0 0.0 0.00 0.00 0.00 78 1010.4
20260906040536 82 124 0.0 0.0 0.00 0.00 0.00 78 1010.4
20260906035529 83 124 0.0 0.0 0.00 0.00 0.00 77 1010.6
20260906034523 83 124 0.0 0.0 0.00 0.00 0.00 77 1010.6
20260906033516 84 124 0.0 0.0 0.00 0.00 0.00 75 1010.6
20260906032510 84 124 0.0 0.0 0.00 0.00 0.00 74 1010.6
20260906031504 84 124 0.0 3.0 0.00 0.00 0.00 75 1010.6
20260906030457 84 124 1.0 2.0 0.00 0.00 0.00 77 1010.5
20260906025451 84 124 0.0 2.0 0.00 0.00 0.00 77 1010.4
20260906024445 85 124 0.0 0.0 0.00 0.00 0.00 76 1010.1
20260906023438 86 124 0.0 0.0 0.00 0.00 0.00 74 1009.9
20260906022432 87 124 0.0 2.0 0.00 0.00 0.00 74 1009.7
20260906021425 88 124 2.0 3.0 0.00 0.00 0.00 70 1009.6
20260906020419 89 116 0.0 4.0 0.00 0.00 0.00 69 1009.3
20260906015412 89 102 2.0 3.0 0.00 0.00 0.00 67 1009.2
20260906014406 89 318 0.0 5.0 0.00 0.00 0.00 66 1009.3
20260906013400 89 115 0.0 9.0 0.00 0.00 0.00 65 1009.2
20260906012353 89 105 4.0 8.0 0.00 0.00 0.00 66 1009.3
20260906011347 89 336 1.0 1.0 0.00 0.00 0.00 67 1009.2
20260906010341 90 336 0.0 1.0 0.00 0.00 0.00 66 1009.1
20260906005334 90 336 0.0 1.0 0.00 0.00 0.00 64 1009.1
20260906004328 91 336 0.0 0.0 0.00 0.00 0.00 63 1009.0
20260906003322 92 336 0.0 0.0 0.00 0.00 0.00 61 1009.1
20260906002315 93 336 0.0 0.0 0.00 0.00 0.00 59 1009.1
20260906001309 94 336 0.0 2.0 0.00 0.00 0.00 57 1009.1
20260906000303 95 336 0.0 3.0 0.00 0.00 0.00 56 1008.9
20260905235256 95 328 2.0 4.0 0.00 0.00 0.00 54 1009.0
20260905234249 96 298 2.0 6.0 0.00 0.00 0.00 53 1009.2
20260905233243 97 300 5.0 7.0 0.00 0.00 0.00 52 1009.2
20260905232237 98 304 2.0 6.0 0.00 0.00 0.00 51 1009.2
20260905231230 98 248 1.0 8.0 0.00 0.00 0.00 50 1009.0
20260905230224 99 322 4.0 6.0 0.00 0.00 0.00 50 1009.0
20260905225218 100 350 3.0 8.0 0.00 0.00 0.00 49 1008.9
20260905224211 100 300 3.0 5.0 0.00 0.00 0.00 48 1009.0
20260905223204 100 228 4.0 6.0 0.00 0.00 0.00 46 1009.1
20260905222158 100 281 1.0 10.0 0.00 0.00 0.00 46 1009.1
20260905221152 101 313 4.0 10.0 0.00 0.00 0.00 44 1009.0
20260905220145 101 312 4.0 7.0 0.00 0.00 0.00 45 1009.0
20260905215139 101 237 3.0 8.0 0.00 0.00 0.00 44 1009.0
20260905214132 101 309 8.0 8.0 0.00 0.00 0.00 44 1009.1
20260905213126 101 305 1.0 10.0 0.00 0.00 0.00 45 1009.1
20260905212120 101 331 3.0 8.0 0.00 0.00 0.00 47 1009.0
20260905211113 101 275 3.0 9.0 0.00 0.00 0.00 44 1009.2
20260905210107 102 264 4.0 11.0 0.00 0.00 0.00 43 1009.3
20260905205100 102 264 7.0 9.0 0.00 0.00 0.00 45 1009.5
20260905204054 102 115 2.0 8.0 0.00 0.00 0.00 44 1009.4
20260905203047 102 323 3.0 4.0 0.00 0.00 0.00 47 1009.6
20260905202041 101 298 1.0 6.0 0.00 0.00 0.00 45 1009.8
20260905201035 100 238 2.0 7.0 0.00 0.00 0.00 46 1010.1
20260905200028 101 317 4.0 8.0 0.00 0.00 0.00 45 1010.3
20260905195021 101 289 1.0 6.0 0.00 0.00 0.00 46 1010.4
20260905194014 101 248 1.0 3.0 0.00 0.00 0.00 46 1010.4
20260905193008 101 206 0.0 6.0 0.00 0.00 0.00 46 1010.5
20260905192002 102 260 3.0 5.0 0.00 0.00 0.00 47 1010.5
20260905190956 101 222 3.0 6.0 0.00 0.00 0.00 48 1010.7
20260905185949 100 207 1.0 4.0 0.00 0.00 0.00 50 1011.0
20260905184943 99 295 1.0 5.0 0.00 0.00 0.00 52 1011.1
20260905183937 99 259 3.0 4.0 0.00 0.00 0.00 53 1011.3
20260905182930 99 244 0.0 11.0 0.00 0.00 0.00 54 1011.5
20260905181924 98 109 0.0 8.0 0.00 0.00 0.00 55 1011.6
20260905180918 97 290 2.0 6.0 0.00 0.00 0.00 56 1011.8
20260905175911 96 201 2.0 7.0 0.00 0.00 0.00 55 1011.9
20260905174905 96 113 7.0 7.0 0.00 0.00 0.00 53 1011.9
20260905173859 97 128 3.0 4.0 0.00 0.00 0.00 54 1012.0
20260905172852 96 19 2.0 4.0 0.00 0.00 0.00 54 1012.0
20260905171846 96 40 3.0 3.0 0.00 0.00 0.00 53 1012.1
20260905170840 95 272 4.0 9.0 0.00 0.00 0.00 57 1012.3
20260905165833 95 121 3.0 4.0 0.00 0.00 0.00 59 1012.4
20260905164827 94 331 0.0 4.0 0.00 0.00 0.00 59 1012.5
20260905163821 93 65 0.0 3.0 0.00 0.00 0.00 62 1012.6
20260905162814 92 96 1.0 7.0 0.00 0.00 0.00 60 1012.8
20260905161808 93 92 4.0 4.0 0.00 0.00 0.00 62 1012.8
20260905160801 92 96 0.0 4.0 0.00 0.00 0.00 65 1013.0
20260905155755 92 77 2.0 3.0 0.00 0.00 0.00 66 1013.2
20260905154748 90 43 0.0 4.0 0.00 0.00 0.00 70 1013.2
20260905153742 89 292 1.0 4.0 0.00 0.00 0.00 72 1013.3
20260905152735 88 115 2.0 2.0 0.00 0.00 0.00 76 1013.3
20260905151729 86 116 0.0 2.0 0.00 0.00 0.00 79 1013.4
20260905150723 85 116 0.0 2.0 0.00 0.00 0.00 81 1013.5
20260905145717 83 112 0.0 0.0 0.00 0.00 0.00 83 1013.4
20260905144710 81 112 0.0 0.0 0.00 0.00 0.00 85 1013.4
20260905143704 81 112 0.0 0.0 0.00 0.00 0.00 87 1013.5
20260905142658 80 112 0.0 1.0 0.00 0.00 0.00 87 1013.4
20260905141652 80 112 0.0 2.0 0.00 0.00 0.00 89 1013.5
20260905140645 79 110 0.0 2.0 0.00 0.00 0.00 90 1013.5
20260905135639 78 110 1.0 3.0 0.00 0.00 0.00 91 1013.4
20260905134633 78 110 0.0 1.0 0.00 0.00 0.00 92 1013.4
20260905133626 78 110 1.0 2.0 0.00 0.00 0.00 92 1013.4
20260905132620 77 110 1.0 2.0 0.00 0.00 0.00 94 1013.5
20260905131613 76 110 0.0 0.0 0.00 0.00 0.00 95 1013.6
20260905130607 76 110 0.0 0.0 0.00 0.00 0.00 95 1013.5
20260905125600 76 110 0.0 0.0 0.00 0.00 0.00 96 1013.6
20260905124554 75 110 0.0 0.0 0.00 0.00 0.00 97 1013.7